Location: Springville
(37.3745°N, 89.2676°W)
Time: 00:31:24
(UTC+00:00)

Cosmos 1656 - Pass Details

Date: 29 October 2020
Orbit: 797 x 851 km, 71.1° (Epoch: 03 December)

Event Time Altitude Azimuth Distance (km) Brightness Sun altitude
Rises 23:15:59 0° 191° (S) 3,321 7.2 -3.6°
Reaches altitude 10° 23:18:24 10° 188° (S) 2,402 6.4 -4.0°
Maximum altitude 23:23:50 62° 108° (ESE) 925 3.7 -5.1°
Drops below altitude 10° 23:29:22 10° 29° (NNE) 2,453 5.7 -6.1°
Sets 23:31:51 0° 26° (NNE) 3,398 6.5 -6.6°
